• Em Portugal
  • Lista de países
  • Para 7 dias
  • Temperatura da água
  • Mapas de satélite
  • Mapa do tempo
  • Widgets de tempo
  • user-avatar
    Iniciar Sessão

    Previsão horária em Dangriga

    Hoje, 24 Janeiro, Quarta-feira

    Tempo Temperatura Precipitação Vento Pressão Humidade
    00:00 +24°C° 0,2 mm 3 m/s 761 mmHg 97%
    01:00 +24°C° 0,5 mm 3 m/s 761 mmHg 97%
    02:00 +24°C° 0,5 mm 3 m/s 761 mmHg 97%
    03:00 +24°C° 0,5 mm 3 m/s 761 mmHg 98%
    04:00 +24°C° 0,8 mm 3 m/s 761 mmHg 98%
    05:00 +24°C° 0,8 mm 3 m/s 761 mmHg 98%
    06:00 +24°C° 0,8 mm 3 m/s 761 mmHg 98%
    07:00 +24°C° 1,2 mm 3 m/s 762 mmHg 95%
    08:00 +25°C° 1,2 mm 3 m/s 763 mmHg 92%
    09:00 +26°C° 1,2 mm 3 m/s 763 mmHg 88%
    10:00 +27°C° 0,4 mm 2 m/s 763 mmHg 85%
    11:00 +28°C° 0,4 mm 2 m/s 763 mmHg 81%
    12:00 +28°C° 0,4 mm 2 m/s 763 mmHg 78%
    13:00 +29°C° 0,3 mm 3 m/s 762 mmHg 76%
    14:00 +29°C° 0,3 mm 3 m/s 761 mmHg 74%
    15:00 +29°C° 0,3 mm 3 m/s 761 mmHg 72%
    16:00 +28°C° 0,3 mm 3 m/s 761 mmHg 77%
    17:00 +27°C° 0,3 mm 3 m/s 761 mmHg 82%
    18:00 +25°C° 0,3 mm 3 m/s 761 mmHg 88%
    19:00 +25°C° 0,4 mm 3 m/s 762 mmHg 91%
    20:00 +24°C° 0,4 mm 3 m/s 762 mmHg 94%
    21:00 +22°C° 0,4 mm 3 m/s 763 mmHg 98%
    22:00 +22°C° 0,9 mm 3 m/s 763 mmHg 98%
    23:00 +22°C° 0,9 mm 3 m/s 763 mmHg 98%

    Amanhã, 25 Janeiro, Quinta-feira

    Tempo Temperatura Precipitação Vento Pressão Humidade
    00:00 +22°C° 0,9 mm 3 m/s 763 mmHg 99%
    01:00 +22°C° 0,8 mm 3 m/s 763 mmHg 99%
    02:00 +22°C° 0,8 mm 3 m/s 762 mmHg 98%
    03:00 +22°C° 0,8 mm 3 m/s 762 mmHg 98%
    04:00 +22°C° 1,3 mm 3 m/s 762 mmHg 98%
    05:00 +22°C° 1,3 mm 3 m/s 762 mmHg 98%
    06:00 +22°C° 1,3 mm 3 m/s 763 mmHg 98%
    07:00 +24°C° 0,8 mm 3 m/s 763 mmHg 95%
    08:00 +25°C° 0,8 mm 3 m/s 764 mmHg 91%
    09:00 +26°C° 0,8 mm 3 m/s 764 mmHg 88%
    10:00 +27°C° 0,5 mm 3 m/s 764 mmHg 85%
    11:00 +27°C° 0,5 mm 3 m/s 764 mmHg 82%
    12:00 +28°C° 0,5 mm 3 m/s 763 mmHg 79%
    13:00 +28°C° 0,4 mm 3 m/s 763 mmHg 79%
    14:00 +28°C° 0,4 mm 3 m/s 762 mmHg 80%
    15:00 +28°C° 0,4 mm 2 m/s 761 mmHg 80%
    16:00 +27°C° 0,3 mm 3 m/s 761 mmHg 84%
    17:00 +26°C° 0,3 mm 3 m/s 762 mmHg 87%
    18:00 +25°C° 0,3 mm 3 m/s 762 mmHg 91%
    19:00 +24°C° 0,7 mm 3 m/s 762 mmHg 93%
    20:00 +24°C° 0,7 mm 3 m/s 763 mmHg 95%
    21:00 +22°C° 0,7 mm 3 m/s 763 mmHg 97%
    22:00 +22°C° 1,6 mm 3 m/s 763 mmHg 98%
    23:00 +22°C° 1,6 mm 3 m/s 763 mmHg 98%

    Depois de amanhã, 26 Janeiro, Sexta-feira

    Tempo Temperatura Precipitação Vento Pressão Humidade
    00:00 +22°C° 1,6 mm 3 m/s 763 mmHg 98%
    01:00 +22°C° 2,3 mm 3 m/s 763 mmHg 98%
    02:00 +22°C° 2,3 mm 3 m/s 762 mmHg 98%
    03:00 +22°C° 2,3 mm 4 m/s 762 mmHg 98%
    04:00 +22°C° 2,1 mm 4 m/s 762 mmHg 98%
    05:00 +22°C° 2,1 mm 4 m/s 762 mmHg 98%
    06:00 +22°C° 2,1 mm 4 m/s 762 mmHg 98%
    07:00 +23°C° 1,7 mm 4 m/s 763 mmHg 97%
    08:00 +25°C° 1,7 mm 4 m/s 763 mmHg 96%
    09:00 +26°C° 1,7 mm 4 m/s 764 mmHg 94%
    10:00 +26°C° 1,1 mm 4 m/s 764 mmHg 94%
    11:00 +26°C° 1,1 mm 4 m/s 763 mmHg 93%
    12:00 +26°C° 1,1 mm 4 m/s 763 mmHg 93%
    13:00 +26°C° 0,6 mm 3 m/s 762 mmHg 92%
    14:00 +26°C° 0,6 mm 3 m/s 761 mmHg 91%
    15:00 +26°C° 0,6 mm 3 m/s 760 mmHg 91%
    16:00 +26°C° 0,3 mm 3 m/s 760 mmHg 92%
    17:00 +25°C° 0,3 mm 3 m/s 760 mmHg 93%
    18:00 +25°C° 0,3 mm 3 m/s 760 mmHg 94%
    19:00 +24°C° 0,6 mm 3 m/s 761 mmHg 95%
    20:00 +24°C° 0,6 mm 3 m/s 761 mmHg 96%
    21:00 +24°C° 0,6 mm 3 m/s 762 mmHg 97%
    22:00 +23°C° 0,8 mm 2 m/s 762 mmHg 97%
    23:00 +23°C° 0,8 mm 2 m/s 761 mmHg 97%

    27 Janeiro, Sábado

    Tempo Temperatura Precipitação Vento Pressão Humidade
    00:00 +23°C° 0,8 mm 2 m/s 761 mmHg 98%
    01:00 +23°C° 0,7 mm 2 m/s 761 mmHg 98%
    02:00 +23°C° 0,7 mm 2 m/s 760 mmHg 98%
    03:00 +23°C° 0,7 mm 2 m/s 760 mmHg 98%
    04:00 +23°C° 1,1 mm 2 m/s 760 mmHg 98%
    05:00 +23°C° 1,1 mm 2 m/s 760 mmHg 98%
    06:00 +23°C° 1,1 mm 2 m/s 761 mmHg 98%
    07:00 +24°C° 1,2 mm 2 m/s 761 mmHg 94%
    08:00 +25°C° 1,2 mm 2 m/s 761 mmHg 91%
    09:00 +26°C° 1,2 mm 2 m/s 762 mmHg 87%
    10:00 +27°C° 0,6 mm 2 m/s 761 mmHg 84%
    11:00 +28°C° 0,6 mm 2 m/s 761 mmHg 80%
    12:00 +29°C° 0,6 mm 2 m/s 761 mmHg 77%
    13:00 +30°C° 0,2 mm 2 m/s 760 mmHg 72%
    14:00 +30°C° 0,2 mm 3 m/s 759 mmHg 68%
    15:00 +30°C° 0,2 mm 3 m/s 758 mmHg 64%
    16:00 +29°C° 0,1 mm 3 m/s 758 mmHg 71%
    17:00 +27°C° 0,1 mm 3 m/s 759 mmHg 78%
    18:00 +26°C° 0,1 mm 3 m/s 759 mmHg 85%
    19:00 +25°C° 0,1 mm 3 m/s 759 mmHg 88%
    20:00 +25°C° 0,1 mm 3 m/s 760 mmHg 92%
    21:00 +24°C° 0,1 mm 2 m/s 760 mmHg 95%
    22:00 +24°C° 0,6 mm 2 m/s 760 mmHg 96%
    23:00 +24°C° 0,6 mm 2 m/s 760 mmHg 96%

    28 Janeiro, Domingo

    Tempo Temperatura Precipitação Vento Pressão Humidade
    00:00 +24°C° 0,6 mm 2 m/s 760 mmHg 97%
    01:00 +24°C° 0,4 mm 2 m/s 760 mmHg 97%
    02:00 +24°C° 0,4 mm 2 m/s 760 mmHg 97%
    03:00 +24°C° 0,4 mm 2 m/s 759 mmHg 98%
    04:00 +24°C° 0,3 mm 2 m/s 760 mmHg 97%
    05:00 +24°C° 0,3 mm 2 m/s 760 mmHg 97%
    06:00 +24°C° 0,3 mm 2 m/s 760 mmHg 97%
    07:00 +25°C° 0,9 mm 2 m/s 761 mmHg 92%
    08:00 +26°C° 0,9 mm 2 m/s 761 mmHg 87%
    09:00 +27°C° 0,9 mm 3 m/s 762 mmHg 83%
    10:00 +28°C° 0,7 mm 3 m/s 762 mmHg 82%
    11:00 +28°C° 0,7 mm 3 m/s 761 mmHg 80%
    12:00 +29°C° 0,7 mm 3 m/s 761 mmHg 79%
    13:00 +29°C° 0,5 mm 3 m/s 760 mmHg 82%
    14:00 +29°C° 0,5 mm 3 m/s 759 mmHg 85%
    15:00 +28°C° 0,5 mm 3 m/s 759 mmHg 88%
    16:00 +27°C° 0,3 mm 3 m/s 759 mmHg 91%
    17:00 +26°C° 0,3 mm 3 m/s 759 mmHg 93%
    18:00 +25°C° 0,3 mm 3 m/s 760 mmHg 96%
    19:00 +25°C° 0,6 mm 3 m/s 760 mmHg 96%
    20:00 +24°C° 0,6 mm 3 m/s 761 mmHg 97%
    21:00 +24°C° 0,6 mm 3 m/s 761 mmHg 97%
    22:00 +24°C° 0,9 mm 3 m/s 761 mmHg 98%
    23:00 +24°C° 0,9 mm 3 m/s 761 mmHg 98%

    29 Janeiro, Segunda-feira

    Tempo Temperatura Precipitação Vento Pressão Humidade
    00:00 +22°C° 0,9 mm 3 m/s 761 mmHg 98%
    01:00 +22°C° 0,9 mm 3 m/s 761 mmHg 98%
    02:00 +22°C° 0,9 mm 3 m/s 760 mmHg 98%
    03:00 +22°C° 0,9 mm 3 m/s 760 mmHg 98%
    04:00 +22°C° 0,9 mm 3 m/s 761 mmHg 98%
    05:00 +22°C° 0,9 mm 3 m/s 761 mmHg 98%
    06:00 +22°C° 0,9 mm 3 m/s 761 mmHg 98%
    07:00 +24°C° 0,6 mm 3 m/s 762 mmHg 95%
    08:00 +25°C° 0,6 mm 3 m/s 762 mmHg 92%
    09:00 +26°C° 0,6 mm 3 m/s 763 mmHg 90%
    10:00 +26°C° 0,8 mm 3 m/s 763 mmHg 88%
    11:00 +27°C° 0,8 mm 3 m/s 762 mmHg 87%
    12:00 +28°C° 0,8 mm 3 m/s 762 mmHg 86%
    13:00 +28°C° 0,4 mm 4 m/s 761 mmHg 87%
    14:00 +27°C° 0,4 mm 4 m/s 761 mmHg 88%
    15:00 +27°C° 0,4 mm 4 m/s 760 mmHg 89%
    16:00 +26°C° 0,5 mm 4 m/s 760 mmHg 92%
    17:00 +26°C° 0,5 mm 4 m/s 761 mmHg 94%
    18:00 +25°C° 0,5 mm 4 m/s 761 mmHg 97%
    19:00 +23°C° 0,8 mm 4 m/s 762 mmHg 97%
    20:00 +23°C° 0,8 mm 4 m/s 762 mmHg 98%
    21:00 +23°C° 0,8 mm 4 m/s 763 mmHg 98%
    22:00 +23°C° 0,8 mm 4 m/s 763 mmHg 99%
    23:00 +22°C° 0,8 mm 3 m/s 762 mmHg 99%
    Mostrar mais